When you browse on this site, cookies collect data to enhance your experience and personalize the content and advertising you see.
Visit our Privacy Policy to learn more. By continuing to use the site, you agree to this use of cookies and data.
  • In Romania
  • List of Countries
  • For 7 days
  • Water Temperature
  • Satellite Maps
  • Weather Map
  • Weather Widgets
  • user-avatar
    Login

    Hourly Weather Buenos Aires

    Today, 17 January, Thursday

    Time Temperature Precipitation Wind Pressure Humidity
    00:00 +27°C° 0 mm 3 mps 759 mmHg 54%
    01:00 +25°C° 0 mm 5 mps 759 mmHg 52%
    02:00 +23°C° 0 mm 7 mps 760 mmHg 50%
    03:00 +22°C° 0 mm 7 mps 760 mmHg 52%
    04:00 +22°C° 0 mm 7 mps 761 mmHg 54%
    05:00 +21°C° 0 mm 7 mps 761 mmHg 56%
    06:00 +21°C° 0 mm 7 mps 762 mmHg 56%
    07:00 +22°C° 0 mm 7 mps 762 mmHg 56%
    08:00 +22°C° 0 mm 7 mps 763 mmHg 55%
    09:00 +23°C° 0 mm 7 mps 763 mmHg 50%
    10:00 +26°C° 0 mm 6 mps 763 mmHg 45%
    11:00 +27°C° 0 mm 6 mps 763 mmHg 40%
    12:00 +28°C° 0 mm 6 mps 763 mmHg 40%
    13:00 +28°C° 0 mm 7 mps 763 mmHg 39%
    14:00 +29°C° 0 mm 7 mps 763 mmHg 39%
    15:00 +28°C° 0 mm 7 mps 763 mmHg 43%
    16:00 +27°C° 0 mm 8 mps 762 mmHg 47%
    17:00 +26°C° 0 mm 8 mps 762 mmHg 51%
    18:00 +24°C° 0 mm 8 mps 763 mmHg 53%
    19:00 +23°C° 0 mm 8 mps 763 mmHg 54%
    20:00 +22°C° 0 mm 8 mps 764 mmHg 56%
    21:00 +21°C° 0 mm 8 mps 764 mmHg 57%
    22:00 +21°C° 0 mm 8 mps 765 mmHg 58%
    23:00 +21°C° 0 mm 8 mps 765 mmHg 59%

    Tomorrow, 18 January, Friday

    Time Temperature Precipitation Wind Pressure Humidity
    00:00 +20°C° 0 mm 7 mps 765 mmHg 60%
    01:00 +20°C° 0 mm 6 mps 765 mmHg 61%
    02:00 +20°C° 0 mm 6 mps 765 mmHg 62%
    03:00 +20°C° 0 mm 5 mps 765 mmHg 62%
    04:00 +20°C° 0 mm 5 mps 765 mmHg 62%
    05:00 +20°C° 0 mm 5 mps 765 mmHg 62%
    06:00 +20°C° 0 mm 5 mps 765 mmHg 61%
    07:00 +21°C° 0 mm 5 mps 765 mmHg 60%
    08:00 +21°C° 0 mm 5 mps 765 mmHg 59%
    09:00 +22°C° 0 mm 5 mps 765 mmHg 57%
    10:00 +23°C° 0 mm 5 mps 765 mmHg 55%
    11:00 +23°C° 0 mm 5 mps 765 mmHg 53%
    12:00 +26°C° 0 mm 5 mps 764 mmHg 48%
    13:00 +27°C° 0 mm 5 mps 763 mmHg 44%
    14:00 +28°C° 0 mm 5 mps 763 mmHg 40%
    15:00 +28°C° 0 mm 5 mps 763 mmHg 42%
    16:00 +28°C° 0 mm 5 mps 762 mmHg 44%
    17:00 +27°C° 0 mm 6 mps 762 mmHg 46%
    18:00 +26°C° 0 mm 6 mps 763 mmHg 51%
    19:00 +24°C° 0 mm 7 mps 763 mmHg 56%
    20:00 +24°C° 0 mm 7 mps 763 mmHg 61%
    21:00 +23°C° 0 mm 7 mps 764 mmHg 63%
    22:00 +23°C° 0 mm 6 mps 764 mmHg 64%
    23:00 +23°C° 0 mm 6 mps 765 mmHg 66%

    Day after tomorrow, 19 January, Saturday

    Time Temperature Precipitation Wind Pressure Humidity
    00:00 +22°C° 0 mm 6 mps 764 mmHg 66%
    01:00 +22°C° 0 mm 5 mps 764 mmHg 66%
    02:00 +22°C° 0 mm 5 mps 764 mmHg 66%
    03:00 +22°C° 0 mm 5 mps 764 mmHg 66%
    04:00 +21°C° 0 mm 4 mps 764 mmHg 66%
    05:00 +21°C° 0 mm 4 mps 764 mmHg 66%
    06:00 +22°C° 0 mm 4 mps 765 mmHg 63%
    07:00 +22°C° 0 mm 5 mps 765 mmHg 61%
    08:00 +23°C° 0 mm 5 mps 765 mmHg 58%
    09:00 +25°C° 0 mm 5 mps 765 mmHg 54%
    10:00 +26°C° 0 mm 5 mps 765 mmHg 50%
    11:00 +26°C° 0 mm 5 mps 765 mmHg 46%
    12:00 +27°C° 0 mm 5 mps 764 mmHg 44%
    13:00 +28°C° 0 mm 5 mps 764 mmHg 42%
    14:00 +28°C° 0 mm 5 mps 763 mmHg 40%
    15:00 +28°C° 0 mm 5 mps 763 mmHg 42%
    16:00 +28°C° 0 mm 5 mps 762 mmHg 44%
    17:00 +28°C° 0 mm 6 mps 762 mmHg 46%
    18:00 +27°C° 0 mm 6 mps 762 mmHg 51%
    19:00 +26°C° 0 mm 6 mps 763 mmHg 56%
    20:00 +26°C° 0 mm 6 mps 763 mmHg 62%
    21:00 +24°C° 0 mm 6 mps 763 mmHg 61%
    22:00 +24°C° 0 mm 7 mps 763 mmHg 61%
    23:00 +24°C° 0 mm 7 mps 764 mmHg 60%

    20 January, Sunday

    Time Temperature Precipitation Wind Pressure Humidity
    00:00 +23°C° 0 mm 7 mps 763 mmHg 62%
    01:00 +23°C° 0 mm 6 mps 763 mmHg 64%
    02:00 +22°C° 0 mm 6 mps 763 mmHg 66%
    03:00 +22°C° 0 mm 5 mps 763 mmHg 67%
    04:00 +21°C° 0 mm 5 mps 763 mmHg 67%
    05:00 +21°C° 0 mm 5 mps 763 mmHg 68%
    06:00 +22°C° 0 mm 5 mps 763 mmHg 65%
    07:00 +22°C° 0 mm 5 mps 763 mmHg 62%
    08:00 +23°C° 0 mm 5 mps 763 mmHg 60%
    09:00 +25°C° 0 mm 4 mps 763 mmHg 55%
    10:00 +26°C° 0 mm 4 mps 762 mmHg 51%
    11:00 +28°C° 0 mm 4 mps 762 mmHg 46%
    12:00 +28°C° 0 mm 4 mps 761 mmHg 44%
    13:00 +29°C° 0 mm 4 mps 760 mmHg 42%
    14:00 +30°C° 0 mm 3 mps 759 mmHg 40%
    15:00 +30°C° 0 mm 3 mps 759 mmHg 41%
    16:00 +30°C° 0 mm 3 mps 758 mmHg 42%
    17:00 +30°C° 0 mm 3 mps 758 mmHg 43%
    18:00 +29°C° 0 mm 4 mps 758 mmHg 47%
    19:00 +28°C° 0 mm 4 mps 758 mmHg 52%
    20:00 +28°C° 0 mm 4 mps 758 mmHg 56%
    21:00 +27°C° 0 mm 5 mps 758 mmHg 60%
    22:00 +27°C° 0 mm 5 mps 759 mmHg 64%
    23:00 +26°C° 0 mm 6 mps 759 mmHg 69%

    21 January, Monday

    Time Temperature Precipitation Wind Pressure Humidity
    00:00 +26°C° 0 mm 5 mps 758 mmHg 70%
    01:00 +25°C° 0 mm 5 mps 758 mmHg 72%
    02:00 +25°C° 0 mm 5 mps 758 mmHg 74%
    03:00 +25°C° 0 mm 4 mps 758 mmHg 76%
    04:00 +23°C° 0 mm 4 mps 758 mmHg 78%
    05:00 +24°C° 0 mm 3 mps 758 mmHg 80%
    06:00 +25°C° 0 mm 3 mps 758 mmHg 76%
    07:00 +26°C° 0 mm 3 mps 758 mmHg 72%
    08:00 +26°C° 0 mm 2 mps 758 mmHg 68%
    09:00 +28°C° 0 mm 2 mps 758 mmHg 61%
    10:00 +30°C° 0 mm 2 mps 758 mmHg 53%
    11:00 +32°C° 0 mm 1 mps 757 mmHg 45%
    12:00 +34°C° 0 mm 2 mps 757 mmHg 42%
    13:00 +35°C° 0 mm 2 mps 756 mmHg 38%
    14:00 +36°C° 0 mm 2 mps 756 mmHg 35%
    15:00 +36°C° 0 mm 3 mps 755 mmHg 36%
    16:00 +35°C° 0 mm 3 mps 755 mmHg 36%
    17:00 +35°C° 0 mm 3 mps 755 mmHg 37%
    18:00 +34°C° 0 mm 3 mps 755 mmHg 42%
    19:00 +33°C° 0 mm 3 mps 755 mmHg 46%
    20:00 +31°C° 0 mm 3 mps 755 mmHg 51%
    21:00 +30°C° 0 mm 3 mps 756 mmHg 53%
    22:00 +30°C° 0 mm 3 mps 756 mmHg 56%
    23:00 +29°C° 0 mm 3 mps 756 mmHg 59%

    22 January, Tuesday

    Time Temperature Precipitation Wind Pressure Humidity
    00:00 +29°C° 0 mm 3 mps 756 mmHg 59%
    01:00 +28°C° 0 mm 3 mps 756 mmHg 60%
    02:00 +28°C° 0 mm 3 mps 755 mmHg 60%
    03:00 +28°C° 0 mm 3 mps 756 mmHg 62%
    04:00 +27°C° 0 mm 3 mps 756 mmHg 63%
    05:00 +27°C° 0 mm 4 mps 756 mmHg 65%
    06:00 +28°C° 0 mm 4 mps 756 mmHg 62%
    07:00 +29°C° 0 mm 4 mps 756 mmHg 60%
    08:00 +30°C° 0 mm 4 mps 757 mmHg 57%
    09:00 +31°C° 0 mm 3 mps 756 mmHg 51%
    10:00 +34°C° 0 mm 3 mps 756 mmHg 45%
    11:00 +36°C° 0 mm 3 mps 755 mmHg 40%
    12:00 +37°C° 0 mm 3 mps 755 mmHg 37%
    13:00 +37°C° 0 mm 3 mps 754 mmHg 34%
    14:00 +38°C° 0 mm 4 mps 754 mmHg 31%
    15:00 +38°C° 0 mm 4 mps 753 mmHg 32%
    16:00 +38°C° 0 mm 4 mps 753 mmHg 33%
    17:00 +38°C° 0 mm 4 mps 753 mmHg 34%
    18:00 +37°C° 0 mm 4 mps 753 mmHg 39%
    19:00 +36°C° 0 mm 4 mps 753 mmHg 44%
    20:00 +34°C° 0 mm 4 mps 753 mmHg 48%
    21:00 +34°C° 0 mm 4 mps 754 mmHg 51%
    22:00 +33°C° 0 mm 4 mps 754 mmHg 53%
    23:00 +33°C° 0 mm 4 mps 754 mmHg 56%
    Show more